Location: ?
(35.2180°N, 139.6392°E)
Time: 11:00:38
(UTC+00:00)

ATLAS 3B R/B - Pass Details

Date: 05 August 2024
Orbit: 940 x 1254 km, 63.8° (Epoch: 14 September)

Event Time Altitude Azimuth Distance (km) Brightness Sun altitude
Rises 18:40:40 0° 322° (NW) 4,206 5.8 -14.2°
Reaches altitude 10° 18:43:37 10° 316° (NW) 3,234 5.1 -13.7°
Maximum altitude 18:50:54 44° 248° (WSW) 1,654 3.3 -12.4°
Drops below altitude 10° 18:57:56 10° 180° (S) 3,108 4.8 -11.2°
Sets 19:00:44 0° 173° (S) 4,028 5.5 -10.7°
